�������l�o���
Date,Time,MP-1(��Sv/h),MP-2(��Sv/h),MP-3(��Sv/h),MP-4(��Sv/h),MP-5(��Sv/h),MP-6(��Sv/h),MP-7(��Sv/h),MP-8(��Sv/h),����,����(m/s),���J
2021/08/28,00:00,0.601,0.891,0.566,1.075,0.764,0.366,0.628,0.588,�쐼,1.7,��
2021/08/28,00:10,0.599,0.889,0.567,1.075,0.763,0.367,0.628,0.589,�쐼,2.3,��
2021/08/28,00:20,0.599,0.891,0.567,1.077,0.762,0.367,0.629,0.586,�쐼,2.6,��
2021/08/28,00:30,0.599,0.889,0.566,1.076,0.761,0.364,0.628,0.588,�쐼,3.3,��
2021/08/28,00:40,0.601,0.892,0.565,1.076,0.761,0.365,0.627,0.588,�쐼,3.5,��
2021/08/28,00:50,0.601,0.889,0.565,1.077,0.761,0.366,0.629,0.588,�쐼,3.0,��
2021/08/28,01:00,0.599,0.890,0.567,1.077,0.760,0.366,0.628,0.588,�쐼,3.0,��
2021/08/28,01:10,0.599,0.889,0.564,1.077,0.763,0.366,0.628,0.587,�쐼,2.8,��
2021/08/28,01:20,0.600,0.890,0.564,1.074,0.762,0.365,0.628,0.588,�쐼,3.4,��
2021/08/28,01:30,0.600,0.891,0.566,1.078,0.761,0.366,0.627,0.587,��쐼,3.4,��
2021/08/28,01:40,0.600,0.891,0.566,1.076,0.762,0.366,0.628,0.588,�쐼,4.0,��
2021/08/28,01:50,0.599,0.890,0.567,1.078,0.762,0.366,0.629,0.588,�쐼,3.3,��
2021/08/28,02:00,0.600,0.891,0.566,1.078,0.762,0.366,0.628,0.586,�쐼,2.8,��
2021/08/28,02:10,0.598,0.890,0.566,1.075,0.762,0.365,0.627,0.587,�쐼,3.6,��
2021/08/28,02:20,0.599,0.889,0.565,1.077,0.761,0.368,0.628,0.587,���쐼,4.2,��
2021/08/28,02:30,0.600,0.890,0.569,1.075,0.761,0.365,0.629,0.589,��,4.1,��
2021/08/28,02:40,0.599,0.889,0.564,1.078,0.762,0.365,0.627,0.586,��,3.9,��
2021/08/28,02:50,0.601,0.891,0.566,1.075,0.760,0.365,0.628,0.588,���k��,3.5,��
2021/08/28,03:00,0.600,0.891,0.566,1.078,0.761,0.367,0.627,0.587,�k��,4.1,��
2021/08/28,03:10,0.598,0.890,0.566,1.074,0.762,0.365,0.627,0.587,�k��,4.0,��
2021/08/28,03:20,0.599,0.892,0.567,1.077,0.763,0.364,0.628,0.587,�k��,2.9,��
2021/08/28,03:30,0.601,0.892,0.566,1.077,0.763,0.365,0.629,0.587,�k��,2.3,��
2021/08/28,03:40,0.599,0.892,0.568,1.076,0.761,0.365,0.628,0.586,���k��,2.2,��
2021/08/28,03:50,0.599,0.893,0.566,1.077,0.762,0.367,0.630,0.589,���k��,3.6,��
2021/08/28,04:00,0.597,0.891,0.568,1.076,0.762,0.367,0.629,0.588,���k��,4.1,��
2021/08/28,04:10,0.599,0.891,0.567,1.077,0.763,0.364,0.630,0.587,��,3.5,��
2021/08/28,04:20,0.598,0.891,0.566,1.074,0.764,0.366,0.629,0.589,���k��,1.4,��
2021/08/28,04:30,0.599,0.891,0.566,1.077,0.761,0.365,0.626,0.589,�쐼,0.8,��
2021/08/28,04:40,0.598,0.893,0.566,1.077,0.763,0.365,0.629,0.587,���k��,0.8,��
2021/08/28,04:50,0.599,0.889,0.566,1.078,0.763,0.366,0.627,0.589,�k�k��,1.5,��
2021/08/28,05:00,0.600,0.892,0.567,1.075,0.760,0.365,0.630,0.588,�k��,2.0,��
2021/08/28,05:10,0.599,0.893,0.565,1.077,0.762,0.365,0.630,0.588,��,2.3,��
2021/08/28,05:20,0.600,0.892,0.566,1.075,0.762,0.365,0.628,0.588,�쐼,1.9,��
2021/08/28,05:30,0.600,0.891,0.566,1.077,0.761,0.366,0.627,0.588,��,0.8,��
2021/08/28,05:40,0.601,0.892,0.567,1.077,0.761,0.365,0.628,0.589,���k��,1.2,��
2021/08/28,05:50,0.600,0.892,0.566,1.077,0.761,0.365,0.628,0.589,��,1.7,��
2021/08/28,06:00,0.599,0.892,0.566,1.077,0.762,0.367,0.628,0.589,���쐼,0.9,��
2021/08/28,06:10,0.599,0.890,0.566,1.077,0.764,0.366,0.628,0.587,�쐼,1.2,��
2021/08/28,06:20,0.599,0.890,0.567,1.076,0.761,0.367,0.627,0.590,��쐼,0.9,��
2021/08/28,06:30,0.598,0.893,0.566,1.076,0.764,0.367,0.628,0.589,�쐼,0.9,��
2021/08/28,06:40,0.599,0.891,0.567,1.077,0.763,0.366,0.629,0.589,��,0.9,��
2021/08/28,06:50,0.599,0.891,0.567,1.077,0.762,0.365,0.629,0.589,��,1.2,��
2021/08/28,07:00,0.599,0.890,0.567,1.076,0.763,0.365,0.629,0.587,��쐼,1.5,��
2021/08/28,07:10,0.600,0.892,0.566,1.077,0.762,0.366,0.628,0.589,��쐼,1.7,��
2021/08/28,07:20,0.600,0.891,0.565,1.077,0.763,0.366,0.628,0.588,��쐼,0.9,��
2021/08/28,07:30,0.599,0.892,0.567,1.078,0.762,0.366,0.628,0.590,-,CALM,��
2021/08/28,07:40,0.601,0.892,0.569,1.077,0.761,0.366,0.628,0.589,-,CALM,��
2021/08/28,07:50,0.600,0.891,0.565,1.078,0.762,0.366,0.630,0.588,�쓌,0.8,��
2021/08/28,08:00,0.600,0.891,0.566,1.079,0.764,0.366,0.630,0.588,�쓌,1.7,��
2021/08/28,08:10,0.600,0.889,0.566,1.078,0.763,0.365,0.630,0.588,���쓌,1.9,��
2021/08/28,08:20,0.601,0.892,0.566,1.075,0.762,0.365,0.630,0.590,���쓌,1.5,��
2021/08/28,08:30,0.600,0.891,0.566,1.077,0.761,0.366,0.630,0.588,�쓌,2.5,��
2021/08/28,08:40,0.600,0.890,0.567,1.078,0.762,0.367,0.630,0.587,�쓌,2.6,��
2021/08/28,08:50,0.600,0.891,0.564,1.080,0.764,0.367,0.631,0.587,�쓌,2.3,��
2021/08/28,09:00,0.598,0.891,0.567,1.077,0.762,0.366,0.631,0.586,�쓌,2.5,��
2021/08/28,09:10,0.599,0.891,0.566,1.077,0.762,0.366,0.630,0.588,�쓌,3.3,��
2021/08/28,09:20,0.601,0.890,0.566,1.078,0.762,0.364,0.629,0.586,�쓌,3.2,��
2021/08/28,09:30,0.600,0.889,0.566,1.077,0.761,0.363,0.629,0.586,�쓌,3.7,��
2021/08/28,09:40,0.600,0.890,0.565,1.075,0.763,0.365,0.628,0.586,�쓌,3.5,��
2021/08/28,09:50,0.600,0.891,0.566,1.075,0.762,0.364,0.628,0.586,�쓌,3.2,��
2021/08/28,10:00,0.599,0.892,0.564,1.075,0.763,0.366,0.628,0.586,�쓌,4.8,��
2021/08/28,10:10,0.600,0.893,0.566,1.078,0.764,0.365,0.629,0.587,�쓌,4.0,��
2021/08/28,10:20,0.599,0.891,0.565,1.078,0.764,0.365,0.627,0.588,�쓌,4.9,��
2021/08/28,10:30,0.601,0.891,0.566,1.077,0.765,0.367,0.628,0.586,�쓌,5.3,��
2021/08/28,10:40,0.600,0.892,0.566,1.077,0.764,0.364,0.631,0.588,�쓌,4.7,��
2021/08/28,10:50,0.601,0.894,0.567,1.079,0.765,0.365,0.627,0.587,��,3.5,��
2021/08/28,11:00,0.602,0.894,0.568,1.079,0.767,0.365,0.629,0.587,��쓌,3.4,��
2021/08/28,11:10,0.602,0.893,0.566,1.079,0.766,0.365,0.629,0.588,�쓌,5.0,��
2021/08/28,11:20,0.603,0.895,0.568,1.080,0.764,0.365,0.630,0.586,��쓌,6.1,��
2021/08/28,11:30,0.603,0.894,0.567,1.079,0.766,0.366,0.630,0.587,��쓌,5.7,��
2021/08/28,11:40,0.604,0.898,0.568,1.082,0.765,0.366,0.629,0.587,��,5.0,��
2021/08/28,11:50,0.604,0.898,0.569,1.080,0.767,0.365,0.630,0.588,��쓌,6.2,��
2021/08/28,12:00,0.602,0.897,0.568,1.077,0.768,0.367,0.630,0.589,��쓌,5.7,��
2021/08/28,12:10,0.603,0.898,0.568,1.077,0.767,0.366,0.629,0.590,��쓌,6.5,��
2021/08/28,12:20,0.605,0.895,0.570,1.079,0.768,0.367,0.631,0.589,��쓌,5.7,��
2021/08/28,12:30,0.603,0.897,0.570,1.080,0.768,0.366,0.630,0.589,��쓌,6.7,��
2021/08/28,12:40,0.605,0.900,0.570,1.081,0.769,0.367,0.630,0.589,��,6.3,��
2021/08/28,12:50,0.603,0.898,0.568,1.079,0.769,0.368,0.630,0.587,��,6.3,��
2021/08/28,13:00,0.606,0.899,0.569,1.083,0.769,0.367,0.631,0.588,��,5.9,��
2021/08/28,13:10,0.606,0.899,0.570,1.081,0.769,0.366,0.630,0.588,��,5.6,��
2021/08/28,13:20,0.605,0.899,0.569,1.080,0.768,0.366,0.632,0.588,��쓌,5.8,��
2021/08/28,13:30,0.604,0.897,0.570,1.081,0.770,0.366,0.631,0.589,��쓌,5.5,��
2021/08/28,13:40,0.605,0.897,0.569,1.081,0.769,0.367,0.633,0.590,��쓌,8.0,��
2021/08/28,13:50,0.603,0.898,0.569,1.083,0.769,0.366,0.632,0.590,��,8.8,��
2021/08/28,14:00,0.604,0.898,0.569,1.081,0.769,0.366,0.633,0.592,��쓌,9.6,��
2021/08/28,14:10,0.606,0.898,0.569,1.080,0.769,0.367,0.632,0.588,��쓌,9.6,��
2021/08/28,14:20,0.604,0.898,0.568,1.082,0.771,0.367,0.632,0.589,��쓌,9.5,��
2021/08/28,14:30,0.604,0.898,0.570,1.082,0.770,0.367,0.630,0.588,��쓌,10.3,��
2021/08/28,14:40,0.604,0.899,0.568,1.083,0.769,0.368,0.629,0.587,��쓌,9.8,��
2021/08/28,14:50,0.604,0.899,0.569,1.083,0.770,0.367,0.632,0.588,��쓌,9.7,��
2021/08/28,15:00,0.604,0.900,0.570,1.083,0.770,0.368,0.632,0.590,��쓌,9.7,��
2021/08/28,15:10,0.606,0.898,0.569,1.079,0.770,0.368,0.629,0.589,��쓌,9.2,��
2021/08/28,15:20,0.603,0.900,0.569,1.083,0.770,0.367,0.632,0.587,��,9.1,��
2021/08/28,15:30,0.604,0.900,0.569,1.081,0.771,0.368,0.631,0.589,��쓌,9.7,��
2021/08/28,15:40,0.605,0.898,0.570,1.081,0.773,0.368,0.632,0.589,��,8.9,��
2021/08/28,15:50,0.604,0.899,0.569,1.083,0.771,0.369,0.634,0.590,��,8.4,��
2021/08/28,16:00,0.604,0.900,0.571,1.083,0.770,0.366,0.632,0.589,��쓌,8.7,��
2021/08/28,16:10,0.604,0.898,0.571,1.081,0.770,0.366,0.632,0.589,��쓌,7.0,��
2021/08/28,16:20,0.603,0.897,0.571,1.082,0.770,0.366,0.631,0.589,��,5.4,��
2021/08/28,16:30,0.604,0.900,0.572,1.083,0.771,0.367,0.631,0.590,��,4.2,��
2021/08/28,16:40,0.605,0.897,0.570,1.083,0.770,0.368,0.630,0.588,��쐼,3.5,��
2021/08/28,16:50,0.604,0.898,0.570,1.083,0.771,0.367,0.630,0.588,��쐼,3.8,��
2021/08/28,17:00,0.604,0.899,0.571,1.084,0.769,0.367,0.631,0.589,�쐼,3.4,��
2021/08/28,17:10,0.604,0.898,0.570,1.083,0.771,0.366,0.630,0.589,�쐼,2.8,��
2021/08/28,17:20,0.606,0.900,0.570,1.084,0.772,0.367,0.629,0.589,��,3.4,��
2021/08/28,17:30,0.605,0.901,0.569,1.084,0.770,0.367,0.629,0.589,��,3.3,��
2021/08/28,17:40,0.604,0.900,0.571,1.084,0.770,0.367,0.631,0.589,���k��,3.6,��
2021/08/28,17:50,0.604,0.900,0.570,1.085,0.770,0.368,0.630,0.589,��,2.6,��
2021/08/28,18:00,0.605,0.899,0.569,1.084,0.770,0.367,0.631,0.588,��,3.1,��
2021/08/28,18:10,0.605,0.899,0.569,1.080,0.771,0.368,0.631,0.589,��,2.3,��
2021/08/28,18:20,0.605,0.900,0.571,1.084,0.771,0.367,0.631,0.589,��,3.0,��
2021/08/28,18:30,0.603,0.899,0.568,1.084,0.771,0.366,0.631,0.589,��,2.0,��
2021/08/28,18:40,0.605,0.902,0.570,1.084,0.771,0.366,0.631,0.588,��,1.5,��
2021/08/28,18:50,0.605,0.900,0.570,1.084,0.772,0.367,0.630,0.590,��,2.8,��
2021/08/28,19:00,0.605,0.898,0.569,1.083,0.771,0.367,0.630,0.588,��,3.8,��
2021/08/28,19:10,0.606,0.899,0.571,1.084,0.771,0.367,0.630,0.589,��,5.3,��
2021/08/28,19:20,0.606,0.901,0.571,1.085,0.772,0.366,0.630,0.588,��,5.7,��
2021/08/28,19:30,0.608,0.900,0.571,1.086,0.771,0.367,0.630,0.588,��,4.1,��
2021/08/28,19:40,0.606,0.900,0.571,1.084,0.771,0.366,0.630,0.588,��,4.1,��
2021/08/28,19:50,0.606,0.901,0.570,1.086,0.771,0.366,0.631,0.588,��,6.3,��
2021/08/28,20:00,0.605,0.901,0.571,1.083,0.772,0.367,0.630,0.588,���k��,6.8,��
2021/08/28,20:10,0.606,0.901,0.570,1.083,0.772,0.366,0.632,0.588,���k��,3.9,��
2021/08/28,20:20,0.606,0.900,0.569,1.085,0.772,0.368,0.631,0.588,�k��,1.7,��
2021/08/28,20:30,0.606,0.902,0.570,1.083,0.772,0.366,0.631,0.590,-,CALM,��
2021/08/28,20:40,0.604,0.900,0.570,1.085,0.772,0.368,0.631,0.588,��쓌,1.7,��
2021/08/28,20:50,0.605,0.902,0.572,1.085,0.773,0.366,0.630,0.589,��쐼,0.6,��
2021/08/28,21:00,0.606,0.902,0.571,1.082,0.769,0.367,0.629,0.591,�k��,0.6,��
2021/08/28,21:10,0.607,0.901,0.569,1.084,0.772,0.368,0.632,0.588,��쓌,0.9,��
2021/08/28,21:20,0.604,0.902,0.570,1.086,0.772,0.366,0.632,0.588,�k�k��,1.9,��
2021/08/28,21:30,0.605,0.900,0.571,1.085,0.771,0.367,0.630,0.590,�k�k��,2.3,��
2021/08/28,21:40,0.607,0.899,0.570,1.086,0.770,0.366,0.632,0.589,�k�k��,2.0,��
2021/08/28,21:50,0.606,0.900,0.572,1.084,0.772,0.368,0.632,0.589,�k��,2.8,��
2021/08/28,22:00,0.606,0.901,0.568,1.085,0.774,0.368,0.631,0.590,�k��,3.7,��
2021/08/28,22:10,0.607,0.902,0.572,1.086,0.772,0.367,0.631,0.589,�k��,3.7,��
2021/08/28,22:20,0.605,0.902,0.569,1.087,0.772,0.368,0.632,0.589,�k��,4.0,��
2021/08/28,22:30,0.604,0.903,0.573,1.086,0.774,0.367,0.632,0.589,�k��,3.6,��
2021/08/28,22:40,0.604,0.901,0.570,1.088,0.772,0.367,0.632,0.590,�k�k��,2.2,��
2021/08/28,22:50,0.605,0.901,0.572,1.088,0.772,0.367,0.631,0.590,�k�k��,1.7,��
2021/08/28,23:00,0.605,0.903,0.569,1.085,0.771,0.367,0.631,0.589,�k,2.3,��
2021/08/28,23:10,0.605,0.902,0.570,1.087,0.772,0.368,0.631,0.588,�k�k��,2.2,��
2021/08/28,23:20,0.604,0.900,0.569,1.086,0.772,0.368,0.631,0.590,�k,3.0,��
2021/08/28,23:30,0.605,0.902,0.572,1.085,0.772,0.367,0.632,0.591,�k�k��,3.6,��
2021/08/28,23:40,0.605,0.901,0.571,1.087,0.772,0.366,0.631,0.589,�k,4.0,��
2021/08/28,23:50,0.606,0.902,0.572,1.086,0.773,0.368,0.630,0.590,�k,5.1,��
